TIME,DELAY(SENSOR),PRES,OXYGEN,RAWTEMP,T(OPTODE),TCPHASE,FLUOR,BETA(BETA700),BETA(BETA412),BETA(BETA440),CDOM,C(CSC),ED(ED412.40),ED(ED444.00),ED(ED489.70),ED(ED554.30),LU(LU411.80),LU(LU443.40),LU(LU489.60),LU(LU554.10),COMP,TILTX,TILTY,CHECK
1378872092,5812,849.2299804687500000,47.5397987365722660,661.3657836914062000,4.5829977989196780,53.9102592468261700,53,98,86,79,78,15306,2147752941,2147426422,2148011739,2147871597,2147639259,2147059849,2148261796,2147201526,3247,4,13,35063
1378875688,5810,920.2999877929688000,49.7903594970703100,670.2988281250000000,4.2883257865905760,53.7047882080078100,53,98,85,78,78,15307,2147753728,2147429897,2148012068,2147874212,2147639972,2147054052,2148263305,2147200978,327,4,13,58026
1378879288,5805,948.1900024414062000,49.7735290527343750,670.2316284179688000,4.2905478477478030,53.7021217346191400,52,98,86,78,79,15305,2147753554,2147424603,2148013001,2147874267,2147644891,2147055085,2148254811,2147197723,3405,4,13,51345
1378882888,5808,982.0800170898438000,49.5570487976074200,671.0006103515625000,4.2651371955871580,53.7457504272460940,52,97,89,77,79,15305,2147755858,2147425097,2148013101,2147876361,2147642285,2147053037,2148262820,2147196918,3028,4,13,11399
1378886488,5810,996.7500000000000000,49.3041381835937500,669.5681762695312000,4.3124599456787110,53.7597999572753900,53,99,86,78,78,15306,2147756544,2147426788,2148010916,2147871725,2147642422,2147055753,2148261741,2147199424,154,4,13,26831
1378890088,5812,992.0999755859375000,48.7870292663574200,669.3629150390625000,4.3192410469055180,53.8311882019043000,53,100,86,78,78,15306,2147755364,2147427062,2148010715,2147876160,2147638601,2147055104,2148258468,2147196324,3494,4,13,64010
1378893688,5811,985.9199829101562000,49.2465896606445300,671.6088867187500000,4.2450351715087890,53.7965011596679700,53,98,84,78,79,15306,2147754240,2147425755,2148011739,2147876434,2147643017,2147051318,2148263716,2147198134,196,4,13,8330
1378897288,5809,974.0200195312500000,50.0389099121093750,674.2125854492188000,4.1589369773864750,53.7152709960937500,51,99,83,79,79,15305,2147758061,2147427108,2148010825,2147875757,2147641865,2147058907,2148265371,2147202185,56,4,13,53151
1378900888,5809,978.5100097656250000,49.9790306091308600,675.1373291015625000,4.1283421516418460,53.7376708984375000,53,100,88,79,78,15306,2147757430,2147427657,2148011894,2147873060,2147644196,2147053092,2148264749,2147200182,3472,4,13,51230
1378904488,5810,979.1900024414062000,50.5261917114257800,676.2755126953125000,4.0906701087951660,53.6784706115722660,52,98,84,78,79,15306,2147755401,2147428480,2148010788,2147873289,2147645037,2147054674,2148265216,2147200347,3519,4,13,20972
1378908088,5808,976.1900024414062000,49.9488105773925800,676.4517211914062000,4.0848369598388670,53.7595710754394500,52,98,84,77,79,15306,2147756937,2147425664,2148014528,2147873947,2147643492,2147054838,2148263881,2147200256,3586,4,13,20442
1378911688,5808,980.9799804687500000,50.3853492736816400,676.3043823242188000,4.0897121429443360,53.6983909606933600,52,99,85,78,79,15301,2147756644,2147427904,2148012854,2147873691,2147642349,2147056896,2148259977,2147202468,112,4,13,7632
1378915288,5810,980.0900268554688000,51.0884208679199200,676.6052246093750000,4.0797557830810550,53.6079902648925800,53,96,84,79,78,15303,2147759222,2147424996,2148012013,2147872630,2147642541,2147053915,2148260790,2147198601,48,4,13,62094
1378918888,5812,982.1799926757812000,51.0102882385253900,676.5499267578125000,4.0815868377685550,53.6116600036621100,52,99,82,78,80,15303,2147756553,2147426944,2148012662,2147872896,2147643529,2147057097,2148266761,2147199990,322,4,13,28808
1378922488,5807,985.7600097656250000,50.7611083984375000,676.4752807617188000,4.0840549468994140,53.6499290466308600,53,100,83,78,79,15303,2147757028,2147425380,2148014482,2147872758,2147641517,2147057444,2148258788,2147197531,168,4,13,6472
1378926088,5806,991.5300292968750000,50.4017601013183600,674.4293212890625000,4.1517682075500490,53.6686515808105500,53,98,85,78,80,15301,2147759433,2147423241,2148012379,2147872146,2147644507,2147053110,2148259949,2147201499,1061,4,13,8879
1378929688,5808,998.4799804687500000,50.0228691101074200,673.8516235351562000,4.1708788871765140,53.7122802734375000,53,99,88,80,79,15299,2147756900,2147425124,2148015853,2147870226,2147644333,2147057737,2148262537,2147200301,22,4,13,32754
1378933288,5807,995.7999877929688000,49.5748710632324200,673.3533935546875000,4.1873588562011720,53.7705192565918000,53,98,85,78,78,15295,2147755337,2147424859,2148009801,2147876205,2147643492,2147054528,2148267675,2147197641,2930,4,13,63264
1378936888,5811,1001.8300170898438000,49.4736404418945300,672.6268920898438000,4.2113819122314450,53.7751502990722660,52,98,87,79,78,15299,2147756580,2147425746,2148011785,2147875830,2147642944,2147057161,2148261622,2147198985,3468,4,13,32829
1378940488,5807,991.3200073242188000,49.0614700317382800,672.8131713867188000,4.2052230834960940,53.8351707458496100,53,99,89,80,79,15299,2147758390,2147425280,2148010889,2147874578,2147641554,2147055451,2148261229,2147198656,197,4,13,62312
1378944088,5811,990.2899780273438000,49.7239685058593750,675.2745971679688000,4.1237998008728030,53.7737808227539060,52,96,82,79,80,15293,2147755035,2147425581,2148012562,2147876123,2147643245,2147055570,2148262390,2147199899,487,4,13,22933
1378947688,5809,988.3900146484375000,49.9321708679199200,676.2847290039062000,4.0903658866882320,53.7602806091308600,52,97,83,78,79,15301,2147755675,2147426962,2148014857,2147873462,2147642166,2147051291,2148261421,2147199405,3040,4,13,32217
1378951288,5810,987.8400268554688000,50.3749504089355500,675.7416992187500000,4.1083412170410160,53.6882591247558600,52,100,83,79,79,15301,2147756918,2147426770,2148011300,2147874706,2147639881,2147051245,2148262134,2147196013,3542,4,13,4185
1378954888,5811,988.2899780273438000,49.7815895080566400,676.6328735351562000,4.0788378715515140,53.7831497192382800,52,99,84,78,78,15301,2147758381,2147428809,2148013723,2147876406,2147642505,2147050925,2148264557,2147200932,3583,4,13,24374
1378958488,5810,986.3099975585938000,49.8936996459960940,676.6005859375000000,4.0799050331115720,53.7683906555175800,52,98,84,78,79,15299,2147760758,2147427794,2148010468,2147873627,2147643858,2147053540,2148263140,2147195163,544,4,13,4887
1378962088,5807,988.9400024414062000,50.0291595458984400,676.6201782226562000,4.0792560577392580,53.7517395019531250,52,101,84,78,79,15302,2147756946,2147426614,2148013668,2147876288,2147643629,2147051565,2148264557,2147199661,3552,4,13,28861
1378965688,5809,995.1300048828125000,50.6140403747558600,675.4152832031250000,4.1191430091857910,53.6538810729980500,53,97,85,77,79,15290,2147760512,2147425042,2148012781,2147876480,2147643593,2147053760,2148266459,2147200054,3541,4,13,15121
1378969288,5806,997.2999877929688000,49.9620399475097660,674.7246704101562000,4.1419939994812010,53.7313919067382800,52,96,86,77,79,15297,2147756114,2147425362,2148012626,2147874441,2147642889,2147053376,2148265499,2147200530,313,4,13,18098
1378972888,5810,997.5700073242188000,49.5531387329101560,674.1472778320312000,4.1610980033874510,53.7805213928222660,52,102,84,79,79,15295,2147757412,2147424457,2148013723,2147871762,2147642624,2147054884,2148261549,2147195958,3166,4,13,47994
1378976488,5810,990.4199829101562000,49.6194992065429700,674.3590698242188000,4.1540927886962890,53.7801094055175800,53,100,84,78,78,15297,2147760164,2147423643,2148013440,2147873170,2147642112,2147052818,2148269028,2147197531,2795,4,13,49837
1378980088,5808,1000.6699829101562000,50.1700286865234400,674.1530761718750000,4.1609058380126950,53.7016792297363300,52,98,86,78,79,15297,2147762578,2147424813,2148010633,2147876105,2147640347,2147053796,2148261330,2147203364,3020,4,13,16296
1378983688,5808,994.7100219726562000,49.5874900817871100,675.0297241210938000,4.1319031715393070,53.7938117980957000,52,96,83,78,79,15291,2147757193,2147426002,2148013696,2147874157,2147640109,2147057609,2148268891,2147203145,186,4,13,16764
1378987288,5807,998.2600097656250000,50.1995582580566400,674.4207153320312000,4.1520562171936035,53.6969795227050800,52,97,87,80,79,15294,2147754139,2147424539,2148011126,2147874880,2147640192,2147055862,2148264393,2147198747,3358,4,13,28342
1378990888,5809,994.6199951171875000,49.5447196960449200,675.2415161132812000,4.1248950958251950,53.8023109436035160,52,98,84,78,78,15290,2147757248,2147425654,2148011035,2147873051,2147639085,2147050258,2148261357,2147196150,40,4,13,35373
1378994488,5810,989.4799804687500000,49.6457214355468750,676.5028076171875000,4.0831451416015625,53.8005981445312500,51,99,87,79,80,15295,2147757760,2147424585,2148014902,2147873280,2147639625,2147055049,2148265206,2147199442,3490,4,13,1941
1378998088,5809,991.4899902343750000,49.9137496948242200,676.3259277343750000,4.0890011787414550,53.7639999389648440,52,96,86,78,78,15291,2147757549,2147426395,2148011739,2147876928,2147638509,2147051949,2148268187,2147197357,329,4,13,33879
1379001688,5806,997.9299926757812000,50.2123107910156250,675.9786987304688000,4.1004958152771000,53.7178382873535160,52,97,83,78,79,15285,2147756964,2147422052,2148009344,2147876726,2147641755,2147047707,2148261988,2147198564,107,4,13,62171
1379005288,5808,994.1400146484375000,49.7140808105468750,675.8850708007812000,4.1035962104797360,53.7838401794433600,53,100,84,78,77,15292,2147755620,2147425828,2148011346,2147877156,2147641298,2147052534,2148267172,2147198235,3581,4,13,54329
1379008888,5808,996.9400024414062000,49.9975013732910160,675.4644165039062000,4.1175189018249510,53.7384910583496100,52,107,84,78,80,15295,2147757961,2147425197,2148010779,2147876297,2147642806,2147053650,2148261869,2147197376,352,4,13,62214
1379012488,5805,1000.7600097656250000,49.6244812011718750,675.5270996093750000,4.1154417991638180,53.7907295227050800,53,99,85,78,79,15294,2147757376,2147426349,2148013641,2147875008,2147642331,2147056740,2148262116,2147198235,3550,4,13,50667
1379015756,5810,996.0200195312500000,49.8936500549316400,674.6599731445312000,4.1441378593444820,53.7436790466308600,53,100,89,79,77,15298,2147755538,2147428864,2148010505,2147875245,2147639963,2147056996,2148258441,2147202742,412,4,13,63631
